Lacon, IL

2:45 PM CST on December 05, 2019 (GMT -0600)
Lacon

Weather History for KC75 - October, 2019

Change the Weather History Date:

Thursday, October 31, 2019

  Actual Average (WUND) Record (WUND)
Temperature  
Mean Temperature 26 °F -  
Max Temperature 32 °F - - (-1)
Min Temperature 21 °F - - (-1)
Degree Days  
Heating Degree Days 38    
Moisture  
Dew Point 26 °F    
Average Humidity 89    
Maximum Humidity 98    
Minimum Humidity 71    
Precipitation  
Precipitation 0.04 in - - ()
Sea Level Pressure  
Sea Level Pressure 30.01 in    
Wind  
Wind Speed 12 mph (WNW)    
Max Wind Speed 22 mph    
Max Gust Speed 30 mph    
Visibility 5 miles    
Events Rain , Snow    
Averages and records for this station are not official NWS values.
T = Trace of Precipitation, MM = Missing Value Source: NWS Daily Summary

Daily Weather History Graph

Daily Weather History Graph

Search for Another Location

Airport or City:

Astronomy

Oct. 31, 2019 Rise Set
Actual Time 7:26 AM CDT 5:54 PM CDT
Civil Twilight 6:58 AM CDT 6:22 PM CDT
Nautical Twilight 6:25 AM CDT 6:55 PM CDT
Astronomical Twilight 5:53 AM CDT 7:27 PM CDT
Moon 11:16 AM CDT (10/31) 8:49 PM CDT (10/31)
Length of Visible Light 11h 24m
Length of Day
10h 27m
Waxing Crescent, 16% of the Moon is Illuminated
Oct 31
Waxing Crescent
Nov 4
First Quarter
Nov 12
Full
Nov 19
Last Quarter
Nov 26
New

Hourly Weather History & Observations

Time (CDT) Temp. Windchill Dew Point Humidity Pressure Visibility Wind Dir Wind Speed Gust Speed Precip Events Conditions
12:15 AM 31.6 °F 22.1 °F 30.6 °F 96% 29.96 in 5.0 mi North 12.7 mph 18.4 mph N/A Rain Light Freezing Rain
12:35 AM 31.6 °F 23.1 °F 30.2 °F 94% 29.95 in 4.0 mi North 10.4 mph 18.4 mph N/A Snow Light Snow
12:55 AM 31.5 °F 22.3 °F 30.2 °F 95% 29.94 in 2.5 mi North 11.5 mph 18.4 mph 0.02 in Snow Light Snow
1:15 AM 31.1 °F 21.9 °F 30.2 °F 96% 29.93 in 2.5 mi North 11.5 mph 18.4 mph 0.01 in Snow Light Snow
1:35 AM 31.1 °F 21.9 °F 30.6 °F 98% 29.93 in 3.0 mi North 11.5 mph 17.3 mph 0.01 in Snow Light Snow
1:55 AM 31.1 °F 21.9 °F 30.2 °F 96% 29.94 in 3.0 mi North 11.5 mph 18.4 mph 0.01 in Snow Light Snow
2:15 AM 31.3 °F 23.3 °F 30.7 °F 98% 29.94 in 3.0 mi NNW 9.2 mph - N/A Snow Light Snow
2:35 AM 31.1 °F 22.4 °F 30.6 °F 98% 29.94 in 1.8 mi NNW 10.4 mph - 0.01 in Snow Light Snow
2:55 AM 31.1 °F 22.4 °F 30.6 °F 98% 29.94 in 1.5 mi NNW 10.4 mph - 0.01 in Snow Light Snow
3:15 AM 30.9 °F 20.7 °F 30.2 °F 97% 29.93 in 1.5 mi NNW 13.8 mph - N/A Snow Light Snow
3:35 AM 30.7 °F 20.9 °F 30.2 °F 98% 29.94 in 2.0 mi NNW 12.7 mph - N/A Snow Light Snow
3:55 AM 30.6 °F 23.1 °F 29.8 °F 97% 29.92 in 2.0 mi NNW 8.1 mph 16.1 mph N/A Snow Light Snow
4:15 AM 30.6 °F 21.8 °F 29.8 °F 97% 29.91 in 1.0 mi NNW 10.4 mph - N/A Snow Snow
4:35 AM 30.2 °F 19.8 °F 29.7 °F 98% 29.91 in 1.5 mi NNW 13.8 mph 17.3 mph N/A Snow Light Snow
4:55 AM 30.2 °F 22.6 °F 29.3 °F 96% 29.91 in 1.8 mi North 8.1 mph 18.4 mph N/A Snow Light Snow
5:15 AM 30.2 °F 20.2 °F 29.3 °F 96% 29.91 in 1.2 mi NNW 12.7 mph 18.4 mph N/A Snow Light Snow
5:35 AM 29.8 °F 19.8 °F 28.9 °F 96% 29.91 in 1.5 mi NNW 12.7 mph 19.6 mph N/A Snow Light Snow
5:55 AM 29.7 °F 19.1 °F 28.6 °F 96% 29.90 in 1.5 mi NNW 13.8 mph - N/A Rain Light Freezing Rain
6:15 AM 29.7 °F 19.1 °F 28.4 °F 95% 29.89 in 2.0 mi NNW 13.8 mph - N/A Rain Light Freezing Rain
6:35 AM 29.3 °F 18.6 °F 28.2 °F 96% 29.87 in 2.0 mi NNW 13.8 mph - N/A Snow Light Snow
7:15 AM 29.1 °F 17.9 °F 27.9 °F 95% 29.88 in 1.8 mi NNW 15.0 mph 18.4 mph N/A Snow Light Snow
7:35 AM 28.9 °F 18.2 °F 27.5 °F 94% 29.88 in 2.0 mi NNW 13.8 mph 24.2 mph N/A Snow Light Snow
7:55 AM 28.8 °F 16.6 °F 27.1 °F 94% 29.89 in 1.0 mi NNW 17.3 mph 23.0 mph N/A Snow Light Snow
8:15 AM 28.4 °F 17.0 °F 27.0 °F 94% 29.89 in 1.0 mi NNW 15.0 mph 21.9 mph N/A Snow Light Snow
8:35 AM 28.4 °F 18.5 °F 27.1 °F 95% 29.91 in 0.8 mi NNW 11.5 mph - N/A Snow Light Snow
8:55 AM 28.6 °F 16.8 °F 27.3 °F 95% 29.91 in 0.8 mi NW 16.1 mph 20.7 mph N/A Snow Light Snow
9:15 AM 28.9 °F 17.7 °F 27.3 °F 94% 29.91 in 1.5 mi NW 15.0 mph 20.7 mph N/A   Overcast
9:35 AM 28.9 °F 17.7 °F 27.3 °F 94% 29.91 in 0.5 mi NW 15.0 mph 23.0 mph N/A Snow Snow
9:55 AM 28.8 °F 17.5 °F 27.1 °F 94% 29.92 in 0.8 mi NW 15.0 mph 23.0 mph N/A Snow Light Snow
10:15 AM 28.8 °F 16.6 °F 27.1 °F 94% 29.92 in 0.8 mi NW 17.3 mph - N/A Snow Light Snow
10:35 AM 29.3 °F 17.7 °F 27.1 °F 92% 29.93 in 1.2 mi NW 16.1 mph 19.6 mph N/A Snow Light Snow
10:55 AM 29.3 °F 18.6 °F 27.0 °F 91% 29.94 in 1.5 mi NW 13.8 mph 20.7 mph N/A Snow Light Snow
11:35 AM 30.2 °F 18.1 °F 27.0 °F 88% 29.94 in 3.0 mi NW 18.4 mph 27.6 mph N/A Rain Light Freezing Rain
11:55 AM 29.8 °F 18.0 °F 27.1 °F 90% 29.94 in 2.5 mi NW 17.3 mph 24.2 mph N/A Rain Light Freezing Rain
12:35 PM 30.6 °F 19.4 °F 26.8 °F 86% 29.96 in 5.0 mi WNW 16.1 mph 26.5 mph N/A   Overcast
12:55 PM 30.2 °F 17.1 °F 26.4 °F 86% 29.96 in 4.0 mi NW 21.9 mph 28.8 mph N/A Rain Light Freezing Rain
1:15 PM 30.6 °F 18.6 °F 26.8 °F 86% 29.96 in 4.0 mi NW 18.4 mph 28.8 mph N/A   Overcast
1:35 PM 30.9 °F 18.7 °F 26.8 °F 85% 29.97 in 4.0 mi WNW 19.6 mph 25.3 mph N/A Rain Light Freezing Rain
1:55 PM 31.1 °F 18.6 °F 27.0 °F 85% 29.97 in 4.0 mi NW 20.7 mph 27.6 mph N/A Rain Light Freezing Rain
2:15 PM 31.5 °F 20.5 °F 27.3 °F 85% 29.99 in 4.0 mi WNW 16.1 mph 29.9 mph N/A Rain Light Freezing Rain
2:35 PM 31.1 °F 19.7 °F 27.0 °F 85% 30.00 in 5.0 mi WNW 17.3 mph 26.5 mph N/A   Light Freezing Rain
2:55 PM 31.3 °F 21.1 °F 27.3 °F 85% 30.01 in 7.0 mi WNW 13.8 mph 23.0 mph N/A Rain Light Freezing Rain
3:15 PM 31.1 °F 20.1 °F 26.4 °F 83% 30.03 in 10.0 mi WNW 16.1 mph 24.2 mph N/A Rain Light Freezing Rain
3:35 PM 30.9 °F 19.4 °F 26.2 °F 83% 30.04 in 7.0 mi WNW 17.3 mph 24.2 mph N/A Rain Light Freezing Rain
3:55 PM 31.1 °F 23.1 °F 26.2 °F 82% 30.05 in 10.0 mi WNW 9.2 mph 20.7 mph N/A Rain Light Freezing Rain
4:15 PM 31.3 °F 22.1 °F 26.2 °F 82% 30.06 in 10.0 mi WNW 11.5 mph 17.3 mph N/A   Overcast
4:35 PM 31.1 °F 23.1 °F 25.5 °F 80% 30.07 in 10.0 mi West 9.2 mph - N/A   Overcast
4:55 PM 31.3 °F 23.3 °F 25.3 °F 79% 30.08 in 10.0 mi West 9.2 mph - N/A   Overcast
5:15 PM 32.0 °F 24.8 °F 23.9 °F 72% 30.09 in 10.0 mi West 8.1 mph 18.4 mph N/A   Overcast
5:35 PM 31.5 °F 23.5 °F 23.2 °F 71% 30.09 in 10.0 mi WNW 9.2 mph 17.3 mph N/A   Overcast
5:55 PM 30.9 °F 23.5 °F 23.4 °F 74% 30.11 in 10.0 mi West 8.1 mph - N/A   Overcast
6:15 PM 30.0 °F 23.2 °F 23.9 °F 78% 30.12 in 10.0 mi West 6.9 mph - N/A   Overcast
6:35 PM 29.8 °F 22.2 °F 23.2 °F 76% 30.13 in 10.0 mi West 8.1 mph 16.1 mph N/A   Overcast
6:55 PM 29.1 °F 20.6 °F 22.1 °F 75% 30.15 in 10.0 mi West 9.2 mph - N/A   Mostly Cloudy
7:15 PM 28.4 °F 22.2 °F 21.6 °F 76% 30.16 in 10.0 mi West 5.8 mph - N/A   Clear
7:35 PM 27.5 °F 20.2 °F 21.6 °F 78% 30.17 in 10.0 mi West 6.9 mph - N/A   Clear
7:55 PM 27.0 °F 21.6 °F 21.2 °F 79% 30.17 in 10.0 mi WSW 4.6 mph - N/A   Clear
8:15 PM 26.6 °F 20.0 °F 21.2 °F 80% 30.18 in 10.0 mi WSW 5.8 mph - N/A   Clear
8:35 PM 25.0 °F - 20.7 °F 84% 30.18 in 10.0 mi Calm Calm - N/A   Clear
8:55 PM 23.0 °F - 19.2 °F 85% 30.18 in 10.0 mi Calm Calm - N/A   Clear
9:15 PM 23.5 °F 19.1 °F 20.5 °F 88% 30.18 in 10.0 mi SW 3.5 mph - N/A   Clear
9:35 PM 21.7 °F 15.5 °F 18.9 °F 89% 30.19 in 10.0 mi SSW 4.6 mph - N/A   Clear
9:55 PM 22.3 °F 17.6 °F 19.9 °F 91% 30.19 in 10.0 mi SSW 3.5 mph - N/A   Clear
10:15 PM 21.9 °F 17.2 °F 19.9 °F 92% 30.19 in 10.0 mi SSW 3.5 mph - N/A   Clear
10:35 PM 23.2 °F 16.0 °F 21.0 °F 91% 30.20 in 10.0 mi SSW 5.8 mph - N/A   Clear
10:55 PM 24.4 °F 18.6 °F 21.7 °F 89% 30.20 in 10.0 mi SSW 4.6 mph - N/A   Clear
11:15 PM 23.9 °F 19.5 °F 21.7 °F 91% 30.19 in 10.0 mi SSW 3.5 mph - N/A   Clear
11:35 PM 24.3 °F 17.3 °F 22.8 °F 94% 30.19 in 10.0 mi SW 5.8 mph - N/A   Clear
11:55 PM 24.8 °F 19.1 °F 23.0 °F 93% 30.19 in 10.0 mi SW 4.6 mph - N/A   Clear